Tel Aviv, Israel

2:41 PM IDT on October 22, 2017 (GMT +0300)
Ben Gurion

Weather History for LLBG - February, 2017

Change the Weather History Date:

Friday, February 17, 2017

  Actual Average Record
Temperature  
Mean Temperature 48 °F -  
Max Temperature 57 °F 65 °F 87 °F (2016)
Min Temperature 40 °F 50 °F 40 °F (2017)
Degree Days  
Heating Degree Days 16    
Moisture  
Dew Point 36 °F    
Average Humidity 60    
Maximum Humidity 81    
Minimum Humidity 27    
Precipitation  
Precipitation 0.00 in - - ()
Sea Level Pressure  
Sea Level Pressure 30.25 in    
Wind  
Wind Speed 4 mph ()    
Max Wind Speed 12 mph    
Max Gust Speed -    
Visibility 6.2 miles    
Events      
Averages and records for this station are not official NWS values.
T = Trace of Precipitation, MM = Missing Value Source: Averaged Metar Reports

Daily Weather History Graph

Daily Weather History Graph

Search for Another Location

Airport or City:

Trip Planner

Search our weather history database for the weather conditions in past years. The results will help you decide how hot, cold, wet, or windy it might be!

Date:

Astronomy

Feb. 17, 2017 Rise Set
Actual Time 6:20 AM IST 5:28 PM IST
Civil Twilight 5:55 AM IST 5:53 PM IST
Nautical Twilight 5:27 AM IST 6:22 PM IST
Astronomical Twilight 4:58 AM IST 6:50 PM IST
Moon 11:34 PM IST (2/17) 10:09 AM IST (2/17)
Length of Visible Light 11h 57m
Length of Day
11h 07m
Waning Gibbous, 63% of the Moon is Illuminated
Feb 17
Waning Gibbous
Feb 18
Last Quarter
Feb 26
New
Mar 5
First Quarter
Mar 12
Full

Hourly Weather History & Observations

Time (IST) Temp. Windchill Dew Point Humidity Pressure Visibility Wind Dir Wind Speed Gust Speed Precip Events Conditions
12:20 AM 46.4 °F 45.2 °F 37.4 °F 71% 30.15 in - Variable 3.5 mph - N/A   Clear
12:50 AM 44.6 °F - 37.4 °F 76% 30.15 in - Variable 1.2 mph - N/A   Clear
1:20 AM 44.6 °F 42.2 °F 37.4 °F 76% 30.18 in - East 4.6 mph - N/A   Clear
1:50 AM 44.6 °F 42.2 °F 37.4 °F 76% 30.15 in - East 4.6 mph - N/A   Clear
2:00 AM 44 °F - 38 °F 71% 30.19 in 6 mi East 4.6 mph - -   Mostly Cloudy
2:20 AM 42.8 °F 41.1 °F 37.4 °F 81% 30.18 in - Variable 3.5 mph - N/A   Clear
2:29 AM 42.8 °F 40.1 °F 37.4 °F 81% 30.18 in - ENE 4.6 mph - N/A   Clear
2:50 AM 42.8 °F 41.1 °F 37.4 °F 81% 30.18 in - Variable 3.5 mph - N/A   Clear
3:20 AM 42.8 °F 41.1 °F 37.4 °F 81% 30.18 in - Variable 3.5 mph - N/A   Clear
3:50 AM 42.8 °F 41.1 °F 32.0 °F 66% 30.18 in - Variable 3.5 mph - N/A   Clear
4:20 AM 42.8 °F - 35.6 °F 76% 30.18 in - Variable 1.2 mph - N/A   Clear
4:50 AM 42.8 °F 41.1 °F 37.4 °F 81% 30.18 in - Variable 3.5 mph - N/A   Clear
5:00 AM 43 °F - 36 °F 68% 30.22 in 6 mi 3.5 mph - -   Partly Cloudy
5:20 AM 42.8 °F 41.1 °F 35.6 °F 76% 30.21 in - Variable 3.5 mph - N/A   Clear
5:50 AM 41.0 °F 39.0 °F 35.6 °F 81% 30.21 in - Variable 3.5 mph - N/A   Clear
6:20 AM 41.0 °F - 35.6 °F 81% 30.21 in - Variable 2.3 mph - N/A   Clear
6:50 AM 41.0 °F 39.0 °F 33.8 °F 76% 30.24 in - Variable 3.5 mph - N/A   Clear
7:20 AM 41.0 °F 39.0 °F 33.8 °F 76% 30.24 in - Variable 3.5 mph - N/A   Clear
7:50 AM 42.8 °F 40.1 °F 32.0 °F 66% 30.24 in - ESE 4.6 mph - N/A   Clear
8:00 AM 42 °F - 33 °F 62% 30.26 in 6 mi ESE 4.6 mph - -   Mostly Cloudy
8:20 AM 44.6 °F 43.1 °F 33.8 °F 66% 30.27 in - Variable 3.5 mph - N/A   Clear
8:50 AM 44.6 °F 43.1 °F 33.8 °F 66% 30.27 in - Variable 3.5 mph - N/A   Clear
9:20 AM 48.2 °F - 37.4 °F 66% 30.27 in - Variable 2.3 mph - N/A   Clear
9:50 AM 50.0 °F - 37.4 °F 62% 30.27 in - South 4.6 mph - N/A   Clear
10:20 AM 53.6 °F - 35.6 °F 51% 30.27 in - Variable 3.5 mph - N/A   Clear
10:50 AM 55.4 °F - 28.4 °F 36% 30.27 in 6.2 mi Variable 2.3 mph - N/A   Partly Cloudy
11:00 AM 54 °F - 30 °F 27% 30.28 in 6 mi 2.3 mph - -   Scattered Clouds
11:20 AM 55.4 °F - 28.4 °F 36% 30.24 in 6.2 mi Variable 3.5 mph - N/A   Partly Cloudy
11:50 AM 57.2 °F - 28.4 °F 33% 30.24 in 6.2 mi Variable 2.3 mph - N/A   Partly Cloudy
12:20 PM 57.2 °F - 32.0 °F 38% 30.24 in - WNW 6.9 mph - N/A   Clear
12:50 PM 57.2 °F - 32.0 °F 38% 30.24 in - NNW 6.9 mph - N/A   Clear
1:20 PM 57.2 °F - 32.0 °F 38% 30.24 in 6.2 mi NNW 10.4 mph - N/A   Scattered Clouds
1:50 PM 57.2 °F - 35.6 °F 44% 30.24 in 6.2 mi NW 11.5 mph - N/A   Scattered Clouds
2:00 PM 56 °F - 34 °F 31% 30.25 in 6 mi NW 10.4 mph - -   Scattered Clouds
2:20 PM 55.4 °F - 35.6 °F 47% 30.24 in 6.2 mi NW 9.2 mph - N/A   Scattered Clouds
2:50 PM 55.4 °F - 35.6 °F 47% 30.24 in 6.2 mi West 6.9 mph - N/A   Scattered Clouds
3:20 PM 55.4 °F - 35.6 °F 47% 30.24 in 6.2 mi West 6.9 mph - N/A   Scattered Clouds
3:50 PM 55.4 °F - 35.6 °F 47% 30.24 in 6.2 mi West 5.8 mph - N/A   Scattered Clouds
4:20 PM 57.2 °F - 37.4 °F 48% 30.24 in 6.2 mi SW 5.8 mph - N/A   Mostly Cloudy
4:50 PM 55.4 °F - 37.4 °F 51% 30.24 in 6.2 mi NNW 10.4 mph - N/A   Scattered Clouds
5:00 PM 56 °F - 36 °F 36% 30.27 in 6 mi NNW 10.4 mph - -   Partly Cloudy
5:20 PM 55.4 °F - 37.4 °F 51% 30.27 in 6.2 mi NW 6.9 mph - N/A   Scattered Clouds
5:50 PM 53.6 °F - 37.4 °F 54% 30.27 in 6.2 mi NW 5.8 mph - N/A   Scattered Clouds
6:20 PM 53.6 °F - 37.4 °F 54% 30.27 in 6.2 mi Variable 3.5 mph - N/A   Scattered Clouds
6:50 PM 53.6 °F - 39.2 °F 58% 30.27 in 6.2 mi Variable 3.5 mph - N/A   Mostly Cloudy
7:20 PM 53.6 °F - 37.4 °F 54% 30.30 in 6.2 mi Variable 3.5 mph - N/A   Scattered Clouds
7:50 PM 53.6 °F - 41.0 °F 62% 30.30 in 6.2 mi Variable 2.3 mph - N/A   Partly Cloudy
8:00 PM 53 °F - 40 °F 52% 30.31 in 6 mi 2.3 mph - -   Mostly Cloudy
8:20 PM 53.6 °F - 39.2 °F 58% 30.30 in 6.2 mi Variable 3.5 mph - N/A   Partly Cloudy
8:50 PM 51.8 °F - 39.2 °F 62% 30.30 in 6.2 mi ESE 4.6 mph - N/A   Scattered Clouds
9:20 PM 51.8 °F - 41.0 °F 67% 30.30 in 6.2 mi Variable 2.3 mph - N/A   Scattered Clouds
9:50 PM 51.8 °F - 39.2 °F 62% 30.30 in 6.2 mi SE 4.6 mph - N/A   Mostly Cloudy
10:20 PM 50.0 °F - 41.0 °F 71% 30.30 in 6.2 mi Variable 1.2 mph - N/A   Mostly Cloudy
10:50 PM 50.0 °F - 39.2 °F 66% 30.33 in 6.2 mi Variable 3.5 mph - N/A   Mostly Cloudy
11:00 PM 50 °F - 41 °F 61% 30.33 in 6 mi 3.5 mph - -   Mostly Cloudy
11:20 PM 50.0 °F - 39.2 °F 66% 30.33 in 6.2 mi ESE 4.6 mph - N/A   Scattered Clouds
11:50 PM 50.0 °F - 39.2 °F 66% 30.33 in 6.2 mi SE 4.6 mph - N/A   Partly Cloudy